Location: B�rgermoos
(47.6500°N, 9.0667°E)
Time: 17:03:34
(UTC+00:00)

Vanguard 1 - Pass Details

Date: 04 August 2021
Orbit: 652 x 3831 km, 34.3° (Epoch: 17 September)

Event Time Altitude Azimuth Distance (km) Brightness Sun altitude
Rises 14:12:40 0° 257° (WSW) 3,822 13.8 44.8°
Reaches altitude 10° 14:15:56 10° 238° (WSW) 3,236 13.8 44.4°
Maximum altitude 14:21:14 18° 197° (SSW) 3,239 13.5 43.6°
Drops below altitude 10° 14:28:35 10° 160° (SSE) 4,723 13.7 42.4°
Sets 14:35:02 0° 146° (SE) 6,408 14.1 41.4°
